ELECTRON R/B, 100683

Orbit data source: Space-Track

ELECTRON R/B, 100683 is space debris in LEO originally from an American launch on Fri, 11 Sep 2026 UTC launched from the Rocket Lab Launch Complex (RLLC). Debris objects in space refer to the collection of defunct objects orbiting the Earth. Examples of debris include non-operational satellites, rocket bodies, and fragments generated from explosions, collisions, or faulty payload assembly.

Not visible in the next 10 days
Identifier
100683, 2026-207B
Orbit
LEO
Country
Flag of USUS
Related business
None
Manufacturer
Unknown
Mission
Spacecraft
Bus & Motor
Unknown
Mass
Unknown
Launch date (UTC)
2026-09-11 (2 days ago)
Launch vehicle
Unknown
Launch site
Rocket Lab Launch Complex (RLLC)
Object type
Payload
Rocket body
Debris
Shape & HBR
Unknown
Radar Cross Section
RCS unknown

Expand to show TLE details & history
Last TLE update: 15 hours ago

TLE from 15 hours ago
0 ELECTRON R/B
1 A0683U 26207B   26255.55842767  .01460877  26335-5  14588-2 0  9993
2 A0683  36.0696 302.1089 0212194  49.1608 312.7331 15.78511294   226
Epoch: 2026-09-12T13:24Z
TLE epoch observation values (Epoch: 2026-09-12T13:24:08.150Z)
Latitude
-0.00003°
Longitude
109.50919°
Altitude
238.682 km
Speed
7.821 km/s
True Right ascension
20h 08m 26s
True Declination
0° 00' 00"
Sunlit
Object was in full shadow at epoch
Visualization orbit readout
Latitude
Unknown
Longitude
Unknown
Altitude
Unknown
Speed
Unknown
Apparent Right ascension
Unknown
Apparent Declination
Unknown
Sunlit
N/A
Visualization observer readout
Local Sidereal Time
20:48:32
Azimuth
Unknown
Elevation
Unknown
Doppler factor
Unknown
Orbital elements
Apogee altitude
480.323 km
Perigee altitude
195.306 km
Semi-major axis
6,715.952 km
Eccentricity
0.02122
Inclination
36.0696°
RAAN
302.1089°
Arg. of periapsis
49.1608°
True anomaly
310.91466°
Mean anomaly
312.7331°
Eccentric anomaly
311.82715°
Mean motion
3.9435 °/min
Orbital period
91.29 mins
BSTAR
0.0014588
Loading maneuver chart data...
Computing Atmospheric mass density...
Loading historical data...
Loading historical data...
Loading historical data...
Loading historical data...
Loading historical data...
Loading historical data...
Loading historical data...
Other satellites on launch #207 in the year 2026 (2026-09-11 UTC)

Documentation

Showing up to 5 results
|